Weather in Melekshino

Russia / Ryazan Oblast     54°09′28″N   40°11′51″E
temp.,
°C
wind,
m/s
gust,
m/s
humid.,
%
clouds,
%
prec.,
mm/h
press.,
hPa
HPBL,
m
6 august, fri
fri600:00+20ssw3649100 0.0 1014134
03:00+18ssw236398 0.1 101441
06:00+19se386899 0.0 1014199
09:00+24sse554470 0.0 1013623
12:00+26s3543100 0.0 1013728
15:00+29ese5832100 0.0 10112074
18:00+28se61137100 0.0 1009786
21:00+27sse714375 0.0 1009674
7 august, sat
sat700:00+25s716446 0.0 1010540
03:00+23sse616445 0.1 1010498
06:00+20s5136386 0.3 1011342
09:00+27s7113458 0.3 1011685
12:00+26sse693379 0.0 1012553
15:00+32s6823100 0.0 10112362
18:00+28ese2540100 0.0 1011289
21:00+26se6143499 0.0 1011387
8 august, sun
sun800:00+24sse61540100 0.0 1012448
03:00+23sse51340100 0.0 1013375
06:00+21sse4104299 0.0 1014290
09:00+26s3534100 0.0 1014423
12:00+29sw3429100 0.0 1014991
15:00+30w342994 0.0 1015849
18:00+28n2345100 0.0 1015123
21:00+25nw2253100 0.0 101733
9 august, mon
mon900:00+22ne226997 0.0 101716
03:00+21nne227291 0.0 101829
06:00+21n2270100 0.0 101835
09:00+26nnw1152100 0.0 1019383
12:00+28nne2243100 0.0 1019513
15:00+31e243096 0.0 10182426
18:00+26ssw3738100 0.0 1018167
21:00+25w3439100 0.0 101958
10 august, tue
tue1000:00+24n3342100 0.0 101946
03:00+23nne4846100 0.0 1018157
06:00+23nne3853100 0.0 1018176
09:00+23ne4861100 0.0 1018335
12:00+24n6856100 0.0 1018758
15:00+23n71163100 0.1 1017453
18:00+20nne81481100 0.4 1016419
21:00+19n4786100 0.4 1016308